Latest Coastal Weather Observations for Carnarvon

IDW60701

Issued at 5:14 pm WST Wednesday 1 April 2015 (issued every 10 minutes, with the page automatically refreshed every 10 minutes)

About coastal observations | Map of coastal stations | Coastal observations for WA | Marine services | Other Formats
Station Details ID: 006011 Name: CARNARVON AIRPORT Lat: -24.89 Lon: 113.67 Height: 4.0 m
Data from the previous 72 hours. | See also: Recent months at Carnarvon
Date/Time
WST
Temp

°C
Wind Pressure Rain
since 9am
mm
Weather Cloud Vis
km
Sea
Height
m
Swell
Dir
 
Speed
knots
Gust
knots
hPa Trend Height
m
Period
s
Dir
01/05:00pm 27.2 SSW 14 18 1013.3 - 0.0 - - 10 - - - -
01/04:30pm 27.5 SSW 15 18 1013.3 - 0.0 - - 10 - - - -
01/04:00pm 27.4 S 15 18 1013.3 - 0.0 - - 10 - - - -
01/03:30pm 27.5 S 16 20 1013.1 - 0.0 - - 10 - - - -
01/03:00pm 27.8 SSW 15 18 1013.3 - 0.0 Fine Mostly clear 25 - - - -
01/02:30pm 27.3 SSW 15 19 1013.6 - 0.0 - - 10 - - - -
01/02:00pm 28.1 S 14 17 1014.0 - 0.0 - - 10 - - - -
01/01:30pm 28.0 S 13 17 1014.5 - 0.0 - - 10 - - - -
01/01:00pm 27.9 S 14 17 1015.0 - 0.0 - - 10 - - - -
01/12:30pm 28.2 S 13 18 1015.5 - 0.0 - - 10 - - - -
01/12:00pm 27.3 S 13 16 1016.0 - 0.0 - - 10 - - - -
01/11:30am 27.3 S 12 15 1016.5 - 0.0 - - 10 - - - -
01/11:00am 27.5 SSE 11 14 1016.8 - 0.0 - - 10 - - - -
01/10:30am 26.4 SSE 12 16 1017.0 - 0.0 - - 10 - - - -
01/10:00am 26.0 SSE 12 15 1017.3 - 0.0 - - 10 - - - -
01/09:30am 24.6 SSE 11 14 1017.4 - 0.0 - - 10 - - - -
01/09:00am 24.5 SSE 13 16 1017.5 - 0.2 Fine Mostly clear 15 - - - -
01/08:30am 23.8 SSE 14 19 1017.2 - 0.2 - - 10 - - - -
01/08:00am 22.8 SSE 13 18 1017.0 - 0.2 - - 10 - - - -
01/07:30am 22.0 SSE 11 14 1016.8 - 0.2 - - 10 - - - -
01/07:00am 21.7 SSE 11 15 1016.5 - 0.2 - - 10 - - - -
01/06:30am 21.6 SSE 11 14 1016.4 - 0.2 - - 10 - - - -
01/06:00am 21.9 SSE 11 14 1016.1 - 0.2 - - 10 - - - -
01/05:30am 22.1 SSE 11 14 1015.9 - 0.2 - - 10 - - - -
01/05:00am 22.3 SSE 11 14 1015.7 - 0.2 - - 10 - - - -
01/04:30am 22.5 SSE 9 11 1015.6 - 0.2 - - 10 - - - -
01/04:00am 22.9 SSE 10 14 1015.5 - 0.2 - - 10 - - - -
01/03:30am 23.1 SSE 11 14 1015.3 - 0.2 - - 10 - - - -
01/03:00am 23.2 S 11 14 1015.5 - 0.2 - - 10 - - - -
01/02:30am 23.3 S 11 14 1015.5 - 0.2 - - 10 - - - -
01/02:00am 23.5 S 11 14 1015.6 - 0.2 - - 10 - - - -
01/01:30am 23.6 S 10 12 1015.8 - 0.2 - Partly cloudy 10 - - - -
01/01:00am 23.6 S 11 14 1016.2 - 0.2 - - 10 - - - -
01/12:30am 23.5 S 11 13 1016.3 - 0.2 - - 10 - - - -
01/12:00am 23.7 S 11 14 1016.4 - 0.2 - - 10 - - - -
 
Date/Time
WST
Temp

°C
Wind Pressure Rain
since 9am
mm
Weather Cloud Vis
km
Sea
Height
m
Swell
Dir
 
Speed
knots
Gust
knots
hPa Trend Height
m
Period
s
Dir
31/11:30pm 23.7 S 11 13 1016.4 - 0.2 - - 10 - - - -
31/11:00pm 24.0 S 11 15 1016.5 - 0.2 - - 10 - - - -
31/10:30pm 23.8 S 9 12 1016.6 - 0.2 - - 10 - - - -
31/10:00pm 24.2 S 11 15 1016.7 - 0.2 - - 10 - - - -
31/09:30pm 24.7 S 12 14 1016.6 - 0.2 - - 10 - - - -
31/09:00pm 25.0 S 11 15 1016.4 - 0.2 - - 10 - - - -
31/08:30pm 24.8 SSW 10 13 1016.3 - 0.2 - - 10 - - - -
31/08:00pm 24.7 SSW 10 13 1016.1 - 0.2 - - 10 - - - -
31/07:30pm 24.6 SSW 10 12 1015.6 - 0.2 - - 10 - - - -
31/07:00pm 24.7 S 10 13 1015.2 - 0.2 - - 10 - - - -
31/06:30pm 24.8 S 9 11 1015.0 - 0.2 - - 10 - - - -
31/06:00pm 25.3 SSW 9 11 1014.8 - 0.2 - - 10 - - - -
31/05:30pm 25.6 SSW 10 12 1014.8 - 0.2 - - 10 - - - -
31/05:00pm 25.9 SSW 11 14 1014.7 - 0.2 - - 10 - - - -
31/04:30pm 25.9 SSW 11 15 1014.4 - 0.2 - - 10 - - - -
31/04:00pm 26.4 S 11 13 1014.4 - 0.2 - - 10 - - - -
31/03:30pm 26.0 SSW 11 14 1014.6 - 0.2 - - 10 - - - -
31/03:00pm 26.0 SSW 13 15 1014.9 - 0.2 Fine Mostly clear 25 - - - -
31/02:30pm 26.2 SSW 13 17 1014.7 - 0.2 - - 10 - - - -
31/02:00pm 26.6 SSW 13 15 1014.9 - 0.2 - - 10 - - - -
31/01:30pm 26.2 SSW 13 16 1014.9 - 0.2 - - 10 - - - -
31/01:00pm 26.2 SSW 12 15 1014.9 - 0.0 - - 10 - - - -
31/12:30pm 26.0 SSW 13 16 1015.4 - 0.0 - - 10 - - - -
31/12:00pm 25.6 SSW 13 16 1015.7 - 0.0 - - 10 - - - -
31/11:30am 25.5 SSW 12 14 1016.2 - 0.0 - Partly cloudy 10 - - - -
31/11:00am 25.4 S 10 13 1016.2 - 0.0 - Partly cloudy 10 - - - -
31/10:37am 25.3 SSE 9 13 1016.2 - 0.0 - Partly cloudy 10 - - - -
31/10:30am 25.1 SSE 9 12 1016.3 - 0.0 - Partly cloudy 10 - - - -
31/10:14am 25.0 SSE 9 11 1016.4 - 0.0 - Partly cloudy 10 - - - -
31/10:09am 24.7 SSE 9 12 1016.4 - 0.0 - Partly cloudy 10 - - - -
31/10:00am 24.4 SE 9 12 1016.5 - 0.0 - Partly cloudy 10 - - - -
31/09:35am 24.3 SE 8 11 1016.8 - 0.0 - Partly cloudy 10 - - - -
31/09:30am 24.4 SE 8 11 1016.8 - 0.0 - Partly cloudy 10 - - - -
31/09:00am 23.4 ESE 8 10 1016.6 - 3.4 Fine Partly cloudy 12 - - - -
31/08:36am 22.8 ESE 8 10 1016.5 - 3.4 - Partly cloudy 10 - - - -
31/08:30am 22.6 ESE 8 10 1016.4 - 3.4 - Partly cloudy 10 - - - -
31/08:16am 22.0 ESE 8 10 1016.2 - 3.4 - Partly cloudy 10 - - - -
31/08:00am 21.3 ESE 7 9 1016.2 - 3.4 - Partly cloudy 4 - - - -
31/07:46am 21.0 ESE 7 10 1016.2 - 3.4 - Partly cloudy 4 - - - -
31/07:42am 21.1 ESE 7 9 1016.1 - 3.4 - Partly cloudy 8 - - - -
31/07:30am 21.0 ESE 7 9 1016.0 - 3.4 - Partly cloudy 10 - - - -
31/07:00am 20.5 E 5 7 1015.6 - 3.4 - - 10 - - - -
31/06:30am 19.9 ESE 5 5 1015.6 - 3.4 - - 10 - - - -
31/06:00am 20.2 SE 6 7 1015.2 - 3.4 - - 10 - - - -
31/05:30am 20.0 SE 6 7 1014.9 - 3.4 - - 10 - - - -
31/05:00am 19.9 SE 5 6 1014.5 - 3.4 - - 10 - - - -
31/04:30am 20.1 SE 6 7 1014.4 - 3.4 - - 10 - - - -
31/04:00am 19.9 SSE 5 5 1014.3 - 3.4 - - 10 - - - -
31/03:30am 20.1 SSE 4 5 1014.2 - 3.4 - - 10 - - - -
31/03:00am 20.4 SSE 4 5 1014.3 - 3.4 - - 10 - - - -
31/02:30am 20.7 S 5 6 1014.5 - 3.4 - - 10 - - - -
31/02:00am 20.8 S 6 7 1014.5 - 3.4 - - 10 - - - -
31/01:30am 20.9 S 6 7 1014.7 - 3.4 - - 10 - - - -
31/01:00am 20.9 S 6 7 1014.5 - 3.4 - - 10 - - - -
31/12:30am 20.9 S 6 7 1014.6 - 3.4 - - 10 - - - -
31/12:00am 20.4 SSE 4 5 1014.7 - 3.4 - - 10 - - - -
 
Date/Time
WST
Temp

°C
Wind Pressure Rain
since 9am
mm
Weather Cloud Vis
km
Sea
Height
m
Swell
Dir
 
Speed
knots
Gust
knots
hPa Trend Height
m
Period
s
Dir
30/11:30pm 20.6 SE 6 6 1014.9 - 3.4 - - 10 - - - -
30/11:00pm 20.7 ESE 5 6 1015.2 - 3.4 - - 10 - - - -
30/10:30pm 21.0 SE 4 5 1015.5 - 3.4 - - 10 - - - -
30/10:00pm 21.4 ESE 4 4 1015.6 - 3.4 - - 10 - - - -
30/09:30pm 21.6 E 4 5 1015.6 - 3.4 - - 10 - - - -
30/09:00pm 21.8 E 5 6 1015.6 - 3.4 - - 10 - - - -
30/08:30pm 21.9 E 7 8 1015.6 - 3.4 - Partly cloudy 10 - - - -
30/08:00pm 21.9 E 6 9 1016.0 - 3.4 - Partly cloudy 10 - - - -
30/07:30pm 21.9 E 10 13 1015.7 - 3.2 - Partly cloudy 10 - - - -
30/07:00pm 22.0 E 7 10 1015.6 - 3.2 - Partly cloudy 10 - - - -
30/06:30pm 22.2 E 10 13 1015.5 - 3.0 - Partly cloudy 10 - - - -
30/06:00pm 22.5 E 9 12 1015.3 - 3.0 - Cloudy 10 - - - -
30/05:30pm 22.6 E 9 12 1015.1 - 2.8 - Partly cloudy 10 - - - -
30/05:24pm 22.7 E 9 12 1015.1 - 2.8 - Partly cloudy 10 - - - -
30/05:00pm 22.7 E 9 12 1014.8 - 2.8 - Partly cloudy 10 - - - -
30/04:30pm 22.6 E 11 14 1014.5 - 2.8 - Partly cloudy 10 - - - -
30/04:27pm 22.7 E 11 14 1014.5 - 2.8 - Partly cloudy 10 - - - -
30/04:00pm 22.4 E 10 13 1014.4 - 2.8 - Partly cloudy 10 - - - -
30/03:30pm 22.1 ESE 11 14 1014.5 - 2.8 - Partly cloudy 10 - - - -
30/03:00pm 21.9 ESE 8 11 1015.5 - 2.8 Drizzle Cloudy 8 - - - -
30/02:30pm 21.7 ESE 8 10 1015.9 - 2.6 - Partly cloudy 10 - - - -
30/02:00pm 21.4 ESE 9 12 1016.3 - 2.2 - Cloudy 10 - - - -
30/01:30pm 21.7 ESE 10 13 1016.3 - 2.2 - Partly cloudy 10 - - - -
30/01:00pm 21.9 SE 8 10 1016.6 - 1.4 - Partly cloudy 10 - - - -
30/12:30pm 22.2 SE 9 11 1016.8 - 0.8 - Partly cloudy 10 - - - -
30/12:00pm 22.4 SSE 11 15 1016.6 - 0.6 - Cloudy 10 - - - -
30/11:30am 22.9 SSE 9 12 1017.0 - 0.4 - Partly cloudy 10 - - - -
30/11:00am 23.9 SSE 12 16 1016.6 - 0.0 - Cloudy 10 - - - -
30/10:30am 23.8 SSE 15 17 1016.7 - 0.0 - Cloudy 10 - - - -
30/10:00am 23.5 SSE 15 18 1016.6 - 0.0 - Partly cloudy 10 - - - -
30/09:30am 23.0 SSE 15 20 1016.1 - 0.0 - - 10 - - - -
30/09:00am 22.4 SSE 12 17 1016.1 - 3.0 Drizzle Cloudy 8 - - - -
30/08:30am 21.6 SSE 11 14 1016.4 - 3.0 - Partly cloudy 10 - - - -
30/08:00am 21.5 SSE 12 15 1016.2 - 3.0 - Partly cloudy 10 - - - -
30/07:30am 21.3 SSE 12 15 1016.3 - 3.0 - Partly cloudy 10 - - - -
30/07:00am 21.3 S 14 18 1016.2 - 3.0 - Partly cloudy 10 - - - -
30/06:30am 22.5 S 12 16 1016.1 - 2.6 - Partly cloudy 10 - - - -
30/06:00am 22.1 S 15 19 1015.5 - 2.6 - Cloudy 10 - - - -
30/05:30am 22.2 SSW 14 18 1015.5 - 2.6 - Partly cloudy 10 - - - -
30/05:00am 21.6 SW 13 17 1015.5 - 2.6 - Partly cloudy 10 - - - -
30/04:30am 22.0 WSW 13 17 1015.3 - 2.4 - Partly cloudy 10 - - - -
30/04:00am 21.8 WSW 11 15 1015.6 - 2.2 - Partly cloudy 10 - - - -
30/03:30am 21.7 WSW 7 10 1015.5 - 1.2 - Partly cloudy 10 - - - -
30/03:00am 22.0 SSE 7 9 1014.5 - 1.0 - Cloudy 10 - - - -
30/02:30am 22.0 ESE 11 13 1014.1 - 0.8 - Partly cloudy 10 - - - -
30/02:00am 24.1 N 10 14 1014.8 - 0.0 - Partly cloudy 10 - - - -
30/01:46am 25.3 NE 15 20 1014.1 - 0.0 - Partly cloudy 10 - - - -
30/01:30am 25.7 SSE 7 9 1013.1 - 0.0 - Cloudy 10 - - - -
30/01:00am 25.7 S 8 11 1013.1 - 0.0 - Partly cloudy 10 - - - -
30/12:30am 25.7 S 8 9 1013.5 - 0.0 - Partly cloudy 10 - - - -
30/12:00am 25.8 S 8 11 1013.5 - 0.0 - - 10 - - - -
 
Date/Time
WST
Temp

°C
Wind Pressure Rain
since 9am
mm
Weather Cloud Vis
km
Sea
Height
m
Swell
Dir
 
Speed
knots
Gust
knots
hPa Trend Height
m
Period
s
Dir
29/11:30pm 26.1 S 9 11 1013.7 - 0.0 - - 10 - - - -
29/11:00pm 26.2 S 9 12 1014.0 - 0.0 - - 10 - - - -
29/10:30pm 26.2 S 8 9 1014.5 - 0.0 - - 10 - - - -
29/10:00pm 26.5 S 8 9 1014.8 - 0.0 - Partly cloudy 10 - - - -
29/09:30pm 26.7 S 8 10 1014.6 - 0.0 - Partly cloudy 10 - - - -
29/09:00pm 26.9 S 9 11 1014.5 - 0.0 - Mostly clear 10 - - - -
29/08:30pm 26.9 S 10 12 1014.4 - 0.0 - - 10 - - - -
29/08:00pm 27.1 S 8 11 1014.3 - 0.0 - - 10 - - - -
29/07:30pm 27.1 S 7 9 1014.2 - 0.0 - - 10 - - - -
29/07:00pm 27.3 S 8 10 1013.9 - 0.0 - - 10 - - - -
29/06:30pm 27.4 S 8 10 1013.6 - 0.0 - - 10 - - - -
29/06:00pm 27.9 S 10 12 1013.2 - 0.0 - - 10 - - - -
29/05:30pm 29.0 S 10 13 1013.1 - 0.0 - - 10 - - - -

Other Formats:

Comma delimited format used in spreadsheet applications
http://www.bom.gov.au/fwo/IDW60701/IDW60701.94300.axf

JavaScript Object Notation format (JSON) in row-major order
http://www.bom.gov.au/fwo/IDW60701/IDW60701.94300.json